Погода в Новоигоревке

Украина / Кировоградская область     48°06′37″N   32°31′35″E
темп.,
°C
ветер,
м/с
пор.,
м/с
влажн.,
%
обл.,
%
осадки,
мм/ч
давл.,
гПа
погр.,
м
23 мая, пн
пн2300:00+11сз61073100 0.0 1005639
03:00+10сз5983100 0.0 1006539
06:00+10с4787100 0.0 1006438
09:00+11ссв357899 0.0 1007681
12:00+14ссв2360100 0.6 10071136
15:00+13сз2271100 1.2 1008383
18:00+15с236198 0.3 1008560
21:00+12с227485 0.8 101023
24 мая, вт
вт2400:00+9ссв34805 0.0 101260
03:00+7ссв337731 0.0 101233
06:00+8ссв22725 0.0 101332
09:00+14ссз114933 0.0 1013510
12:00+17сз354579 0.2 10132134
15:00+18с564399 0.3 10132126
18:00+17с564617 0.0 10141144
21:00+11ссв34595 0.0 101657
25 мая, ср
ср2500:00+10ссв22711 0.0 101713
03:00+8с22750 0.0 101911
06:00+9сз22735 0.0 101919
09:00+16сз22515 0.0 1020535
12:00+20ссз12404 0.0 10201943
15:00+22з123470 0.0 10192414
18:00+21юз2237100 0.0 10192233
21:00+17ююз2246100 0.0 101912
26 мая, чт
чт2600:00+14юз486631 0.0 1020162
03:00+11ююз497368 0.0 1020170
06:00+11ююз41277100 0.0 1018301
09:00+14ююз51268100 0.1 1018653
12:00+15ююз61268100 0.9 1017599
15:00+17зсз487996 1.3 1016592
18:00+20зсз47708 0.8 1016831
21:00+15сз337978 1.3 101729
27 мая, пт
пт2700:00+13зсз34835 0.0 101857
03:00+12з47875 0.0 1018109
06:00+12зсз398438 0.0 1018160
09:00+19зсз58595 0.0 1018767
12:00+23зсз6104544 0.0 10172185
15:00+21зюз4858100 0.0 1016321
18:00+21сз2361100 0.0 1015171
21:00+17ююз4573100 0.0 101570